Time,TemperatureF,DewpointF,PressureIn,WindDirection,WindDirectionDegrees,WindSpeedMPH,WindSpeedGustMPH,Humidity,HourlyPrecipIn,Conditions,Clouds,dailyrainin,SoftwareType,DateUTC
2013-04-01 00:01:00,50.2,42.9,29.75,West,280,3.0,5.0,76,0.00,,,0.00,Wunderground v.1.15,2013-04-01 04:01:00,
2013-04-01 00:02:00,50.4,42.8,29.75,West,262,4.0,5.0,75,0.00,,,0.00,Wunderground v.1.15,2013-04-01 04:02:00,
2013-04-01 00:04:00,50.6,42.3,29.75,WSW,257,4.0,5.0,73,0.00,,,0.00,Wunderground v.1.15,2013-04-01 04:04:00,
2013-04-01 00:08:00,51.0,42.6,29.75,West,263,4.0,5.0,73,0.00,,,0.00,Wunderground v.1.15,2013-04-01 04:08:00,
2013-04-01 00:12:00,51.3,41.8,29.75,WNW,284,3.0,3.0,70,0.00,,,0.00,Wunderground v.1.15,2013-04-01 04:12:00,
2013-04-01 00:17:00,51.7,41.9,29.75,SW,230,4.0,8.0,69,0.00,,,0.00,Wunderground v.1.15,2013-04-01 04:17:00,
2013-04-01 00:23:00,51.8,41.6,29.75,West,259,3.0,5.0,68,0.00,,,0.00,Wunderground v.1.15,2013-04-01 04:23:00,
2013-04-01 00:29:00,51.7,41.5,29.75,WSW,257,3.0,6.0,68,0.00,,,0.00,Wunderground v.1.15,2013-04-01 04:29:00,
2013-04-01 00:35:00,51.6,41.4,29.75,West,260,4.0,7.0,68,0.00,,,0.00,Wunderground v.1.15,2013-04-01 04:35:00,
2013-04-01 00:41:00,51.8,41.2,29.75,West,260,4.0,4.0,67,0.00,,,0.00,Wunderground v.1.15,2013-04-01 04:41:00,
2013-04-01 00:46:00,51.8,40.8,29.75,WNW,289,3.0,7.0,66,0.00,,,0.00,Wunderground v.1.15,2013-04-01 04:46:00,
2013-04-01 00:52:00,51.9,40.9,29.76,West,276,3.0,6.0,66,0.00,,,0.00,Wunderground v.1.15,2013-04-01 04:52:00,
2013-04-01 00:58:00,51.7,41.1,29.76,West,266,2.0,6.0,67,0.00,,,0.00,Wunderground v.1.15,2013-04-01 04:58:00,
2013-04-01 01:04:00,51.6,41.4,29.76,West,277,2.0,6.0,68,0.00,,,0.00,Wunderground v.1.15,2013-04-01 05:04:00,
2013-04-01 01:09:00,51.5,41.3,29.76,West,276,2.0,6.0,68,0.00,,,0.00,Wunderground v.1.15,2013-04-01 05:09:00,
2013-04-01 01:14:00,51.3,41.1,29.76,West,281,3.0,6.0,68,0.00,,,0.00,Wunderground v.1.15,2013-04-01 05:14:00,
2013-04-01 01:19:00,51.0,41.2,29.76,WNW,284,2.0,6.0,69,0.00,,,0.00,Wunderground v.1.15,2013-04-01 05:19:00,
2013-04-01 01:25:00,50.8,41.0,29.76,West,262,3.0,6.0,69,0.00,,,0.00,Wunderground v.1.15,2013-04-01 05:25:00,
2013-04-01 01:30:00,51.2,41.0,29.76,WNW,285,5.0,5.0,68,0.00,,,0.00,Wunderground v.1.15,2013-04-01 05:30:00,
2013-04-01 01:35:00,51.4,41.2,29.76,West,266,6.0,7.0,68,0.00,,,0.00,Wunderground v.1.15,2013-04-01 05:35:00,
2013-04-01 01:41:00,51.4,40.8,29.76,West,275,5.0,7.0,67,0.00,,,0.00,Wunderground v.1.15,2013-04-01 05:41:00,
2013-04-01 01:47:00,51.2,41.0,29.77,West,279,5.0,7.0,68,0.00,,,0.00,Wunderground v.1.15,2013-04-01 05:47:00,
2013-04-01 01:52:00,51.0,40.8,29.76,West,280,4.0,6.0,68,0.00,,,0.00,Wunderground v.1.15,2013-04-01 05:52:00,
2013-04-01 01:57:00,50.7,40.5,29.76,West,273,4.0,9.0,68,0.00,,,0.00,Wunderground v.1.15,2013-04-01 05:57:00,
2013-04-01 02:02:00,50.6,40.4,29.76,WNW,282,5.0,6.0,68,0.00,,,0.00,Wunderground v.1.15,2013-04-01 06:02:00,
2013-04-01 02:08:00,50.4,39.9,29.77,West,277,5.0,7.0,67,0.00,,,0.00,Wunderground v.1.15,2013-04-01 06:08:00,
2013-04-01 02:13:00,50.2,39.7,29.77,West,276,4.0,6.0,67,0.00,,,0.00,Wunderground v.1.15,2013-04-01 06:13:00,
2013-04-01 02:18:00,50.2,39.7,29.77,WNW,297,4.0,6.0,67,0.00,,,0.00,Wunderground v.1.15,2013-04-01 06:18:00,
2013-04-01 02:23:00,50.1,39.6,29.77,WNW,293,4.0,6.0,67,0.00,,,0.00,Wunderground v.1.15,2013-04-01 06:23:00,
2013-04-01 02:28:00,50.1,39.6,29.77,WNW,297,4.0,6.0,67,0.00,,,0.00,Wunderground v.1.15,2013-04-01 06:28:00,
2013-04-01 02:33:00,49.9,39.4,29.77,West,269,3.0,6.0,67,0.00,,,0.00,Wunderground v.1.15,2013-04-01 06:33:00,
2013-04-01 02:39:00,49.6,39.5,29.77,WNW,287,2.0,7.0,68,0.00,,,0.00,Wunderground v.1.15,2013-04-01 06:39:00,
2013-04-01 02:44:00,49.5,39.4,29.78,West,279,2.0,6.0,68,0.00,,,0.00,Wunderground v.1.15,2013-04-01 06:44:00,
2013-04-01 02:49:00,49.2,39.1,29.78,WNW,286,2.0,6.0,68,0.00,,,0.00,Wunderground v.1.15,2013-04-01 06:49:00,
2013-04-01 02:55:00,49.0,38.9,29.78,WNW,295,2.0,6.0,68,0.00,,,0.00,Wunderground v.1.15,2013-04-01 06:55:00,
2013-04-01 03:00:00,48.9,38.8,29.78,West,272,2.0,2.0,68,0.00,,,0.00,Wunderground v.1.15,2013-04-01 07:00:00,
2013-04-01 03:05:00,48.7,38.6,29.78,West,270,2.0,6.0,68,0.00,,,0.00,Wunderground v.1.15,2013-04-01 07:05:00,
2013-04-01 03:12:00,48.4,38.3,29.77,West,276,1.0,6.0,68,0.00,,,0.00,Wunderground v.1.15,2013-04-01 07:12:00,
2013-04-01 03:17:00,48.1,38.0,29.77,West,276,0.0,6.0,68,0.00,,,0.00,Wunderground v.1.15,2013-04-01 07:17:00,
2013-04-01 03:23:00,47.9,37.8,29.77,West,276,0.0,6.0,68,0.00,,,0.00,Wunderground v.1.15,2013-04-01 07:23:00,
2013-04-01 03:29:00,47.4,37.4,29.77,West,276,0.0,6.0,68,0.00,,,0.00,Wunderground v.1.15,2013-04-01 07:29:00,
2013-04-01 03:34:00,46.9,37.6,29.77,West,276,0.0,6.0,70,0.00,,,0.00,Wunderground v.1.15,2013-04-01 07:34:00,
2013-04-01 03:39:00,46.4,37.5,29.77,West,276,0.0,6.0,71,0.00,,,0.00,Wunderground v.1.15,2013-04-01 07:39:00,
2013-04-01 03:44:00,46.2,37.7,29.77,West,276,0.0,6.0,72,0.00,,,0.00,Wunderground v.1.15,2013-04-01 07:44:00,
2013-04-01 03:50:00,46.1,37.6,29.77,West,276,0.0,6.0,72,0.00,,,0.00,Wunderground v.1.15,2013-04-01 07:50:00,
2013-04-01 03:55:00,46.1,37.6,29.77,West,276,0.0,6.0,72,0.00,,,0.00,Wunderground v.1.15,2013-04-01 07:55:00,
2013-04-01 04:00:00,46.1,37.6,29.77,West,276,0.0,6.0,72,0.00,,,0.00,Wunderground v.1.15,2013-04-01 08:00:00,
2013-04-01 04:07:00,45.9,37.7,29.77,West,276,0.0,6.0,73,0.00,,,0.00,Wunderground v.1.15,2013-04-01 08:07:00,
2013-04-01 04:12:00,45.4,37.2,29.77,West,276,0.0,6.0,73,0.00,,,0.00,Wunderground v.1.15,2013-04-01 08:12:00,
2013-04-01 04:17:00,45.1,37.0,29.77,West,261,1.0,6.0,73,0.00,,,0.00,Wunderground v.1.15,2013-04-01 08:17:00,
2013-04-01 04:22:00,44.6,36.8,29.77,West,261,1.0,6.0,74,0.00,,,0.00,Wunderground v.1.15,2013-04-01 08:22:00,
2013-04-01 04:27:00,44.2,36.8,29.77,West,261,1.0,6.0,75,0.00,,,0.00,Wunderground v.1.15,2013-04-01 08:27:00,
2013-04-01 04:32:00,44.0,36.6,29.77,West,260,1.0,6.0,75,0.00,,,0.00,Wunderground v.1.15,2013-04-01 08:32:00,
2013-04-01 04:38:00,43.7,36.3,29.77,West,260,0.0,6.0,75,0.00,,,0.00,Wunderground v.1.15,2013-04-01 08:38:00,
2013-04-01 04:44:00,43.6,36.5,29.77,West,261,0.0,6.0,76,0.00,,,0.00,Wunderground v.1.15,2013-04-01 08:44:00,
2013-04-01 04:50:00,43.1,35.7,29.77,West,261,0.0,6.0,75,0.00,,,0.00,Wunderground v.1.15,2013-04-01 08:50:00,
2013-04-01 04:55:00,42.6,35.9,29.77,West,261,0.0,6.0,77,0.00,,,0.00,Wunderground v.1.15,2013-04-01 08:55:00,
2013-04-01 05:02:00,41.9,35.5,29.77,West,261,0.0,6.0,78,0.00,,,0.00,Wunderground v.1.15,2013-04-01 09:02:00,
2013-04-01 05:07:00,41.2,35.2,29.76,West,261,0.0,6.0,79,0.00,,,0.00,Wunderground v.1.15,2013-04-01 09:07:00,
2013-04-01 05:12:00,41.1,35.4,29.76,West,261,0.0,6.0,80,0.00,,,0.00,Wunderground v.1.15,2013-04-01 09:12:00,
2013-04-01 05:17:00,41.3,35.6,29.76,West,261,0.0,6.0,80,0.00,,,0.00,Wunderground v.1.15,2013-04-01 09:17:00,
2013-04-01 05:23:00,41.6,35.6,29.76,West,261,0.0,6.0,79,0.00,,,0.00,Wunderground v.1.15,2013-04-01 09:23:00,
2013-04-01 05:28:00,41.5,35.2,29.76,West,261,0.0,6.0,78,0.00,,,0.00,Wunderground v.1.15,2013-04-01 09:28:00,
2013-04-01 05:33:00,41.4,35.4,29.76,West,261,0.0,6.0,79,0.00,,,0.00,Wunderground v.1.15,2013-04-01 09:33:00,
2013-04-01 05:38:00,41.1,35.1,29.76,West,261,0.0,6.0,79,0.00,,,0.00,Wunderground v.1.15,2013-04-01 09:38:00,
2013-04-01 05:43:00,40.8,35.1,29.76,West,260,0.0,6.0,80,0.00,,,0.00,Wunderground v.1.15,2013-04-01 09:43:00,
2013-04-01 05:48:00,40.6,35.2,29.76,West,261,0.0,6.0,81,0.00,,,0.00,Wunderground v.1.15,2013-04-01 09:48:00,
2013-04-01 05:54:00,40.4,35.0,29.76,West,261,0.0,6.0,81,0.00,,,0.00,Wunderground v.1.15,2013-04-01 09:54:00,
2013-04-01 05:59:00,40.6,35.5,29.76,West,261,0.0,6.0,82,0.00,,,0.00,Wunderground v.1.15,2013-04-01 09:59:00,
2013-04-01 06:05:00,41.3,35.6,29.77,West,261,1.0,6.0,80,0.00,,,0.00,Wunderground v.1.15,2013-04-01 10:05:00,
2013-04-01 06:10:00,41.2,35.2,29.77,West,261,1.0,6.0,79,0.00,,,0.00,Wunderground v.1.15,2013-04-01 10:10:00,
2013-04-01 06:15:00,40.9,35.2,29.77,West,260,0.0,6.0,80,0.00,,,0.00,Wunderground v.1.15,2013-04-01 10:15:00,
2013-04-01 06:20:00,40.7,35.3,29.77,West,260,1.0,6.0,81,0.00,,,0.00,Wunderground v.1.15,2013-04-01 10:20:00,
2013-04-01 06:25:00,41.1,35.4,29.77,West,260,1.0,6.0,80,0.00,,,0.00,Wunderground v.1.15,2013-04-01 10:25:00,
2013-04-01 06:30:00,41.6,36.2,29.77,WSW,257,1.0,6.0,81,0.00,,,0.00,Wunderground v.1.15,2013-04-01 10:30:00,
2013-04-01 06:36:00,42.3,35.9,29.77,WSW,257,2.0,6.0,78,0.00,,,0.00,Wunderground v.1.15,2013-04-01 10:36:00,
2013-04-01 06:42:00,42.3,35.9,29.78,WSW,257,1.0,6.0,78,0.00,,,0.00,Wunderground v.1.15,2013-04-01 10:42:00,
2013-04-01 06:47:00,42.5,36.4,29.77,WSW,256,2.0,6.0,79,0.00,,,0.00,Wunderground v.1.15,2013-04-01 10:47:00,
2013-04-01 06:53:00,43.4,36.7,29.78,WSW,249,2.0,6.0,77,0.00,,,0.00,Wunderground v.1.15,2013-04-01 10:53:00,
2013-04-01 06:58:00,43.7,37.0,29.78,West,269,2.0,6.0,77,0.00,,,0.00,Wunderground v.1.15,2013-04-01 10:58:00,
2013-04-01 07:04:00,44.4,37.3,29.78,West,271,3.0,6.0,76,0.00,,,0.00,Wunderground v.1.15,2013-04-01 11:04:00,
2013-04-01 07:10:00,45.5,38.0,29.78,West,265,4.0,6.0,75,0.00,,,0.00,Wunderground v.1.15,2013-04-01 11:10:00,
2013-04-01 07:16:00,46.4,38.2,29.78,West,274,4.0,6.0,73,0.00,,,0.00,Wunderground v.1.15,2013-04-01 11:16:00,
2013-04-01 07:22:00,47.1,38.5,29.78,WSW,237,5.0,7.0,72,0.00,,,0.00,Wunderground v.1.15,2013-04-01 11:22:00,
2013-04-01 07:27:00,47.5,38.9,29.78,SW,235,6.0,7.0,72,0.00,,,0.00,Wunderground v.1.15,2013-04-01 11:27:00,
2013-04-01 07:33:00,47.7,38.8,29.78,WSW,244,5.0,6.0,71,0.00,,,0.00,Wunderground v.1.15,2013-04-01 11:33:00,
2013-04-01 07:38:00,47.8,38.8,29.78,WSW,241,4.0,6.0,71,0.00,,,0.00,Wunderground v.1.15,2013-04-01 11:38:00,
2013-04-01 07:43:00,48.2,38.9,29.78,SW,233,4.0,6.0,70,0.00,,,0.00,Wunderground v.1.15,2013-04-01 11:43:00,
2013-04-01 07:49:00,48.5,39.2,29.78,SW,231,5.0,7.0,70,0.00,,,0.00,Wunderground v.1.15,2013-04-01 11:49:00,
2013-04-01 07:55:00,48.7,39.0,29.78,SW,221,5.0,6.0,69,0.00,,,0.00,Wunderground v.1.15,2013-04-01 11:55:00,
2013-04-01 08:00:00,49.0,39.3,29.78,WSW,247,4.0,4.0,69,0.00,,,0.00,Wunderground v.1.15,2013-04-01 12:00:00,
2013-04-01 08:05:00,49.4,39.3,29.78,WSW,238,4.0,7.0,68,0.00,,,0.00,Wunderground v.1.15,2013-04-01 12:05:00,
2013-04-01 08:10:00,49.9,39.8,29.78,WSW,245,4.0,4.0,68,0.00,,,0.00,Wunderground v.1.15,2013-04-01 12:10:00,
2013-04-01 08:15:00,50.3,39.8,29.78,SW,233,4.0,6.0,67,0.00,,,0.00,Wunderground v.1.15,2013-04-01 12:15:00,
2013-04-01 08:21:00,50.9,39.9,29.78,WSW,247,4.0,6.0,66,0.00,,,0.00,Wunderground v.1.15,2013-04-01 12:21:00,
2013-04-01 08:26:00,51.5,40.1,29.78,WSW,241,4.0,7.0,65,0.00,,,0.00,Wunderground v.1.15,2013-04-01 12:26:00,
2013-04-01 08:31:00,51.8,40.0,29.77,SW,222,5.0,6.0,64,0.00,,,0.00,Wunderground v.1.15,2013-04-01 12:31:00,
2013-04-01 08:37:00,52.2,40.0,29.77,WSW,252,5.0,8.0,63,0.00,,,0.00,Wunderground v.1.15,2013-04-01 12:37:00,
2013-04-01 08:42:00,52.7,40.0,29.77,WSW,241,6.0,8.0,62,0.00,,,0.00,Wunderground v.1.15,2013-04-01 12:42:00,
2013-04-01 08:48:00,53.1,40.4,29.77,WSW,239,7.0,8.0,62,0.00,,,0.00,Wunderground v.1.15,2013-04-01 12:48:00,
2013-04-01 08:54:00,53.3,40.2,29.78,WSW,240,8.0,11.0,61,0.00,,,0.00,Wunderground v.1.15,2013-04-01 12:54:00,
2013-04-01 08:59:00,53.5,40.4,29.78,West,270,8.0,11.0,61,0.00,,,0.00,Wunderground v.1.15,2013-04-01 12:59:00,
2013-04-01 09:05:00,53.4,40.3,29.78,West,259,8.0,15.0,61,0.00,,,0.00,Wunderground v.1.15,2013-04-01 13:05:00,
2013-04-01 09:10:00,53.4,40.7,29.78,West,264,9.0,11.0,62,0.00,,,0.00,Wunderground v.1.15,2013-04-01 13:10:00,
2013-04-01 09:16:00,53.9,41.2,29.79,WNW,287,8.0,11.0,62,0.00,,,0.00,Wunderground v.1.15,2013-04-01 13:16:00,
2013-04-01 09:22:00,53.2,40.5,29.78,WSW,247,8.0,10.0,62,0.00,,,0.00,Wunderground v.1.15,2013-04-01 13:22:00,
2013-04-01 09:27:00,53.0,40.7,29.78,West,275,8.0,10.0,63,0.00,,,0.00,Wunderground v.1.15,2013-04-01 13:27:00,
2013-04-01 09:32:00,53.0,40.7,29.78,SW,227,7.0,9.0,63,0.00,,,0.00,Wunderground v.1.15,2013-04-01 13:32:00,
2013-04-01 09:38:00,53.0,41.1,29.78,SW,235,7.0,11.0,64,0.00,,,0.00,Wunderground v.1.15,2013-04-01 13:38:00,
2013-04-01 09:44:00,53.0,41.1,29.78,WSW,238,6.0,7.0,64,0.00,,,0.00,Wunderground v.1.15,2013-04-01 13:44:00,
2013-04-01 09:50:00,53.8,41.5,29.77,South,177,6.0,6.0,63,0.00,,,0.00,Wunderground v.1.15,2013-04-01 13:50:00,
2013-04-01 09:56:00,54.1,41.8,29.78,WSW,239,6.0,14.0,63,0.00,,,0.00,Wunderground v.1.15,2013-04-01 13:56:00,
2013-04-01 10:01:00,54.5,41.7,29.77,West,259,8.0,8.0,62,0.00,,,0.00,Wunderground v.1.15,2013-04-01 14:01:00,
2013-04-01 10:07:00,54.6,41.8,29.77,WSW,239,9.0,15.0,62,0.00,,,0.00,Wunderground v.1.15,2013-04-01 14:07:00,
2013-04-01 10:12:00,54.9,41.7,29.76,WSW,258,9.0,9.0,61,0.00,,,0.00,Wunderground v.1.15,2013-04-01 14:12:00,
2013-04-01 10:18:00,55.3,41.6,29.77,WSW,239,8.0,10.0,60,0.00,,,0.00,Wunderground v.1.15,2013-04-01 14:18:00,
2013-04-01 10:23:00,55.5,41.8,29.77,SW,234,8.0,10.0,60,0.00,,,0.00,Wunderground v.1.15,2013-04-01 14:23:00,
2013-04-01 10:28:00,55.5,41.0,29.77,WSW,243,8.0,10.0,58,0.00,,,0.00,Wunderground v.1.15,2013-04-01 14:28:00,
2013-04-01 10:34:00,55.7,41.6,29.77,WSW,257,8.0,14.0,59,0.00,,,0.00,Wunderground v.1.15,2013-04-01 14:34:00,
2013-04-01 10:39:00,56.0,41.9,29.77,SW,236,9.0,14.0,59,0.00,,,0.00,Wunderground v.1.15,2013-04-01 14:39:00,
2013-04-01 10:44:00,56.1,41.5,29.77,WSW,247,9.0,13.0,58,0.00,,,0.00,Wunderground v.1.15,2013-04-01 14:44:00,
2013-04-01 10:49:00,56.1,41.5,29.77,WNW,297,9.0,13.0,58,0.00,,,0.00,Wunderground v.1.15,2013-04-01 14:49:00,
2013-04-01 10:55:00,56.6,41.5,29.76,West,277,8.0,9.0,57,0.00,,,0.00,Wunderground v.1.15,2013-04-01 14:55:00,
2013-04-01 11:00:00,57.0,41.4,29.77,West,275,7.0,7.0,56,0.00,,,0.00,Wunderground v.1.15,2013-04-01 15:00:00,
2013-04-01 11:05:00,56.5,41.0,29.77,WSW,253,8.0,11.0,56,0.00,,,0.00,Wunderground v.1.15,2013-04-01 15:05:00,
2013-04-01 11:11:00,56.1,41.1,29.77,West,278,9.0,11.0,57,0.00,,,0.00,Wunderground v.1.15,2013-04-01 15:11:00,
2013-04-01 11:17:00,56.2,41.6,29.77,West,274,7.0,11.0,58,0.00,,,0.00,Wunderground v.1.15,2013-04-01 15:17:00,
2013-04-01 11:22:00,55.9,40.9,29.77,West,275,7.0,11.0,57,0.00,,,0.00,Wunderground v.1.15,2013-04-01 15:22:00,
2013-04-01 11:28:00,54.8,41.6,29.78,WNW,288,9.0,12.0,61,0.00,,,0.00,Wunderground v.1.15,2013-04-01 15:28:00,
2013-04-01 11:34:00,54.4,42.5,29.77,WSW,245,7.0,9.0,64,0.00,,,0.00,Wunderground v.1.15,2013-04-01 15:34:00,
2013-04-01 11:39:00,54.9,43.4,29.77,WSW,252,5.0,9.0,65,0.00,,,0.00,Wunderground v.1.15,2013-04-01 15:39:00,
2013-04-01 11:45:00,55.5,42.3,29.77,WSW,250,8.0,12.0,61,0.00,,,0.00,Wunderground v.1.15,2013-04-01 15:45:00,
2013-04-01 11:50:00,55.8,42.1,29.76,WNW,289,10.0,10.0,60,0.00,,,0.00,Wunderground v.1.15,2013-04-01 15:50:00,
2013-04-01 11:55:00,56.9,42.3,29.76,WNW,296,9.0,12.0,58,0.00,,,0.00,Wunderground v.1.15,2013-04-01 15:55:00,
2013-04-01 12:02:00,57.5,42.4,29.76,WSW,255,8.0,14.0,57,0.00,,,0.00,Wunderground v.1.15,2013-04-01 16:02:00,
2013-04-01 12:07:00,58.2,43.0,29.76,WSW,249,7.0,14.0,57,0.00,,,0.00,Wunderground v.1.15,2013-04-01 16:07:00,
2013-04-01 12:13:00,57.6,40.6,29.76,WSW,243,8.0,12.0,53,0.00,,,0.00,Wunderground v.1.15,2013-04-01 16:13:00,
2013-04-01 12:18:00,56.9,40.9,29.76,WNW,291,11.0,15.0,55,0.00,,,0.00,Wunderground v.1.15,2013-04-01 16:18:00,
2013-04-01 12:23:00,56.8,40.3,29.76,WSW,251,12.0,13.0,54,0.00,,,0.00,Wunderground v.1.15,2013-04-01 16:23:00,
2013-04-01 12:28:00,56.9,40.4,29.76,West,272,11.0,14.0,54,0.00,,,0.00,Wunderground v.1.15,2013-04-01 16:28:00,
2013-04-01 12:33:00,57.6,41.5,29.76,WSW,241,10.0,12.0,55,0.00,,,0.00,Wunderground v.1.15,2013-04-01 16:33:00,
2013-04-01 12:39:00,58.4,41.8,29.75,SW,235,9.0,14.0,54,0.00,,,0.00,Wunderground v.1.15,2013-04-01 16:39:00,
2013-04-01 12:45:00,58.8,42.2,29.75,WSW,247,9.0,11.0,54,0.00,,,0.00,Wunderground v.1.15,2013-04-01 16:45:00,
2013-04-01 12:50:00,57.4,41.4,29.75,SSW,200,10.0,10.0,55,0.00,,,0.00,Wunderground v.1.15,2013-04-01 16:50:00,
2013-04-01 12:55:00,56.7,41.6,29.75,SSW,212,11.0,12.0,57,0.00,,,0.00,Wunderground v.1.15,2013-04-01 16:55:00,
2013-04-01 13:02:00,56.9,40.9,29.76,West,278,10.0,16.0,55,0.00,,,0.00,Wunderground v.1.15,2013-04-01 17:02:00,
2013-04-01 13:07:00,57.4,40.4,29.75,West,264,10.0,18.0,53,0.00,,,0.00,Wunderground v.1.15,2013-04-01 17:07:00,
2013-04-01 13:12:00,56.8,40.3,29.76,West,276,11.0,11.0,54,0.00,,,0.00,Wunderground v.1.15,2013-04-01 17:12:00,
2013-04-01 13:18:00,56.4,41.8,29.76,SSW,202,12.0,17.0,58,0.00,,,0.00,Wunderground v.1.15,2013-04-01 17:18:00,
2013-04-01 13:23:00,56.4,41.8,29.76,SW,222,12.0,12.0,58,0.00,,,0.00,Wunderground v.1.15,2013-04-01 17:23:00,
2013-04-01 13:28:00,56.5,41.9,29.76,SW,228,12.0,17.0,58,0.00,,,0.00,Wunderground v.1.15,2013-04-01 17:28:00,
2013-04-01 13:34:00,56.8,42.2,29.76,WSW,247,13.0,13.0,58,0.00,,,0.00,Wunderground v.1.15,2013-04-01 17:34:00,
2013-04-01 13:40:00,57.1,42.5,29.76,WSW,258,13.0,13.0,58,0.00,,,0.00,Wunderground v.1.15,2013-04-01 17:40:00,
2013-04-01 13:45:00,57.1,41.1,29.75,SW,228,12.0,17.0,55,0.00,,,0.00,Wunderground v.1.15,2013-04-01 17:45:00,
2013-04-01 13:51:00,56.9,40.9,29.75,SSW,209,14.0,17.0,55,0.00,,,0.00,Wunderground v.1.15,2013-04-01 17:51:00,
2013-04-01 13:56:00,57.5,40.5,29.75,WSW,250,14.0,17.0,53,0.00,,,0.00,Wunderground v.1.15,2013-04-01 17:56:00,
2013-04-01 14:02:00,56.9,39.9,29.75,West,279,15.0,15.0,53,0.00,,,0.00,Wunderground v.1.15,2013-04-01 18:02:00,
2013-04-01 14:08:00,56.3,40.3,29.76,West,260,14.0,21.0,55,0.00,,,0.00,Wunderground v.1.15,2013-04-01 18:08:00,
2013-04-01 14:14:00,55.4,40.0,29.77,WSW,241,14.0,15.0,56,0.00,,,0.00,Wunderground v.1.15,2013-04-01 18:14:00,
2013-04-01 14:20:00,55.0,40.5,29.77,WSW,244,11.0,11.0,58,0.00,,,0.00,Wunderground v.1.15,2013-04-01 18:20:00,
2013-04-01 14:26:00,54.7,40.2,29.76,West,280,10.0,13.0,58,0.00,,,0.00,Wunderground v.1.15,2013-04-01 18:26:00,
2013-04-01 14:32:00,54.7,39.8,29.76,WNW,288,8.0,10.0,57,0.00,,,0.00,Wunderground v.1.15,2013-04-01 18:32:00,
2013-04-01 14:37:00,55.1,39.7,29.76,West,264,8.0,12.0,56,0.00,,,0.00,Wunderground v.1.15,2013-04-01 18:37:00,
2013-04-01 14:42:00,55.5,38.6,29.76,West,276,9.0,13.0,53,0.00,,,0.00,Wunderground v.1.15,2013-04-01 18:42:00,
2013-04-01 14:48:00,56.4,37.5,29.76,West,268,11.0,15.0,49,0.00,,,0.00,Wunderground v.1.15,2013-04-01 18:48:00,
2013-04-01 14:54:00,56.6,35.5,29.76,WSW,241,15.0,28.0,45,0.00,,,0.01,Wunderground v.1.15,2013-04-01 18:54:00,
2013-04-01 15:00:00,57.1,34.8,29.75,SW,228,15.0,18.0,43,0.00,,,0.01,Wunderground v.1.15,2013-04-01 19:00:00,
2013-04-01 17:05:00,53.9,33.0,29.78,WNW,285,10.0,10.0,45,0.00,,,0.00,Wunderground v.1.15,2013-04-01 21:05:00,
2013-04-01 17:10:00,53.8,34.0,29.78,NW,312,10.0,10.0,47,0.00,,,0.00,Wunderground v.1.15,2013-04-01 21:10:00,
2013-04-01 17:16:00,53.5,33.2,29.78,NW,314,10.0,20.0,46,0.00,,,0.00,Wunderground v.1.15,2013-04-01 21:16:00,
2013-04-01 17:21:00,53.3,33.0,29.79,NW,318,10.0,11.0,46,0.00,,,0.00,Wunderground v.1.15,2013-04-01 21:21:00,
2013-04-01 17:27:00,53.1,32.8,29.79,NW,305,9.0,12.0,46,0.00,,,0.00,Wunderground v.1.15,2013-04-01 21:27:00,
2013-04-01 17:32:00,52.8,32.6,29.80,West,263,9.0,15.0,46,0.00,,,0.00,Wunderground v.1.15,2013-04-01 21:32:00,
2013-04-01 17:37:00,52.6,32.4,29.80,NW,318,10.0,19.0,46,0.00,,,0.00,Wunderground v.1.15,2013-04-01 21:37:00,
2013-04-01 17:43:00,52.8,32.6,29.80,West,275,11.0,13.0,46,0.00,,,0.00,Wunderground v.1.15,2013-04-01 21:43:00,
2013-04-01 17:49:00,52.7,32.5,29.80,West,281,11.0,14.0,46,0.00,,,0.00,Wunderground v.1.15,2013-04-01 21:49:00,
2013-04-01 17:54:00,52.0,31.8,29.80,West,260,12.0,18.0,46,0.00,,,0.00,Wunderground v.1.15,2013-04-01 21:54:00,
2013-04-01 17:59:00,52.0,31.8,29.81,WNW,285,11.0,11.0,46,0.00,,,0.00,Wunderground v.1.15,2013-04-01 21:59:00,
2013-04-01 18:04:00,51.5,31.4,29.81,West,266,9.0,19.0,46,0.00,,,0.00,Wunderground v.1.15,2013-04-01 22:04:00,
2013-04-01 18:09:00,51.1,31.6,29.82,West,264,10.0,19.0,47,0.00,,,0.00,Wunderground v.1.15,2013-04-01 22:09:00,
2013-04-01 18:15:00,50.6,30.6,29.82,West,274,11.0,19.0,46,0.00,,,0.00,Wunderground v.1.15,2013-04-01 22:15:00,
2013-04-01 18:20:00,50.3,30.3,29.82,West,278,12.0,19.0,46,0.00,,,0.00,Wunderground v.1.15,2013-04-01 22:20:00,
2013-04-01 18:25:00,50.1,31.2,29.82,WNW,302,10.0,19.0,48,0.00,,,0.00,Wunderground v.1.15,2013-04-01 22:25:00,
2013-04-01 18:30:00,49.7,30.3,29.83,West,272,10.0,19.0,47,0.00,,,0.00,Wunderground v.1.15,2013-04-01 22:30:00,
2013-04-01 18:35:00,49.5,30.6,29.83,NW,308,11.0,19.0,48,0.00,,,0.00,Wunderground v.1.15,2013-04-01 22:35:00,
2013-04-01 18:41:00,49.1,30.7,29.83,NW,307,10.0,19.0,49,0.00,,,0.00,Wunderground v.1.15,2013-04-01 22:41:00,
2013-04-01 18:46:00,49.0,30.7,29.83,West,264,9.0,19.0,49,0.00,,,0.00,Wunderground v.1.15,2013-04-01 22:46:00,
2013-04-01 18:51:00,48.7,30.9,29.84,WSW,238,9.0,19.0,50,0.00,,,0.00,Wunderground v.1.15,2013-04-01 22:51:00,
2013-04-01 18:56:00,48.4,30.1,29.84,West,276,9.0,19.0,49,0.00,,,0.00,Wunderground v.1.15,2013-04-01 22:56:00,
2013-04-01 19:02:00,48.0,29.7,29.84,West,266,10.0,19.0,49,0.00,,,0.00,Wunderground v.1.15,2013-04-01 23:02:00,
2013-04-01 19:08:00,47.5,28.3,29.85,West,273,10.0,19.0,47,0.00,,,0.00,Wunderground v.1.15,2013-04-01 23:08:00,
2013-04-01 19:13:00,46.9,28.2,29.85,West,264,9.0,19.0,48,0.00,,,0.00,Wunderground v.1.15,2013-04-01 23:13:00,
2013-04-01 19:18:00,46.5,27.8,29.85,NW,317,10.0,19.0,48,0.00,,,0.00,Wunderground v.1.15,2013-04-01 23:18:00,
2013-04-01 19:23:00,46.2,28.1,29.86,WSW,258,8.0,19.0,49,0.00,,,0.00,Wunderground v.1.15,2013-04-01 23:23:00,
2013-04-01 19:29:00,45.9,27.8,29.86,WNW,299,7.0,19.0,49,0.00,,,0.00,Wunderground v.1.15,2013-04-01 23:29:00,
2013-04-01 19:35:00,45.6,28.0,29.87,WNW,282,8.0,19.0,50,0.00,,,0.00,Wunderground v.1.15,2013-04-01 23:35:00,
2013-04-01 19:40:00,45.4,27.8,29.87,West,278,6.0,19.0,50,0.00,,,0.00,Wunderground v.1.15,2013-04-01 23:40:00,
2013-04-01 19:45:00,45.2,28.1,29.87,WNW,292,5.0,19.0,51,0.00,,,0.00,Wunderground v.1.15,2013-04-01 23:45:00,
2013-04-01 19:52:00,44.9,28.3,29.88,NW,312,4.0,19.0,52,0.00,,,0.00,Wunderground v.1.15,2013-04-01 23:52:00,
2013-04-01 19:57:00,44.7,28.1,29.88,NW,326,5.0,19.0,52,0.00,,,0.00,Wunderground v.1.15,2013-04-01 23:57:00,
2013-04-01 20:02:00,44.6,26.1,29.88,NW,318,7.0,19.0,48,0.00,,,0.00,Wunderground v.1.15,2013-04-02 00:02:00,
2013-04-01 20:08:00,44.4,26.4,29.89,WNW,299,8.0,19.0,49,0.00,,,0.00,Wunderground v.1.15,2013-04-02 00:08:00,
2013-04-01 20:14:00,44.0,25.5,29.89,WNW,288,6.0,19.0,48,0.00,,,0.00,Wunderground v.1.15,2013-04-02 00:14:00,
2013-04-01 20:19:00,43.8,26.3,29.89,NW,323,6.0,19.0,50,0.00,,,0.00,Wunderground v.1.15,2013-04-02 00:19:00,
2013-04-01 20:25:00,43.4,26.5,29.89,NW,310,5.0,19.0,51,0.00,,,0.00,Wunderground v.1.15,2013-04-02 00:25:00,
2013-04-01 20:30:00,43.3,26.4,29.89,NNW,339,6.0,19.0,51,0.00,,,0.00,Wunderground v.1.15,2013-04-02 00:30:00,
2013-04-01 20:35:00,43.3,26.4,29.89,NW,318,7.0,19.0,51,0.00,,,0.00,Wunderground v.1.15,2013-04-02 00:35:00,
2013-04-01 20:42:00,43.0,26.6,29.90,NNW,334,7.0,19.0,52,0.00,,,0.00,Wunderground v.1.15,2013-04-02 00:42:00,
2013-04-01 20:48:00,42.8,26.4,29.90,NNW,335,6.0,19.0,52,0.00,,,0.00,Wunderground v.1.15,2013-04-02 00:48:00,
2013-04-01 20:53:00,42.4,26.5,29.90,NNW,335,5.0,19.0,53,0.00,,,0.00,Wunderground v.1.15,2013-04-02 00:53:00,
2013-04-01 20:59:00,42.1,26.6,29.90,NNW,337,4.0,19.0,54,0.00,,,0.00,Wunderground v.1.15,2013-04-02 00:59:00,
2013-04-01 21:04:00,41.9,26.4,29.91,NW,326,4.0,19.0,54,0.00,,,0.00,Wunderground v.1.15,2013-04-02 01:04:00,
2013-04-01 21:10:00,41.7,26.3,29.91,NW,323,4.0,19.0,54,0.00,,,0.00,Wunderground v.1.15,2013-04-02 01:10:00,
2013-04-01 21:16:00,41.5,26.1,29.91,NW,322,4.0,19.0,54,0.00,,,0.00,Wunderground v.1.15,2013-04-02 01:16:00,
2013-04-01 21:21:00,41.3,26.3,29.92,NW,324,4.0,19.0,55,0.00,,,0.00,Wunderground v.1.15,2013-04-02 01:21:00,
2013-04-01 21:27:00,41.1,25.7,29.92,NW,324,4.0,19.0,54,0.00,,,0.00,Wunderground v.1.15,2013-04-02 01:27:00,
2013-04-01 21:33:00,40.9,26.0,29.92,NW,322,3.0,19.0,55,0.00,,,0.00,Wunderground v.1.15,2013-04-02 01:33:00,
2013-04-01 21:39:00,40.6,25.7,29.93,NW,318,3.0,19.0,55,0.00,,,0.00,Wunderground v.1.15,2013-04-02 01:39:00,
2013-04-01 21:45:00,40.6,25.7,29.93,NW,316,3.0,19.0,55,0.00,,,0.00,Wunderground v.1.15,2013-04-02 01:45:00,
2013-04-01 21:50:00,40.5,25.6,29.93,NW,314,3.0,3.0,55,0.00,,,0.00,Wunderground v.1.15,2013-04-02 01:50:00,
2013-04-01 21:55:00,40.2,25.3,29.93,NW,324,3.0,19.0,55,0.00,,,0.00,Wunderground v.1.15,2013-04-02 01:55:00,
2013-04-01 22:00:00,40.2,25.3,29.93,NNW,332,3.0,19.0,55,0.00,,,0.00,Wunderground v.1.15,2013-04-02 02:00:00,
2013-04-01 22:05:00,40.2,25.3,29.93,NW,318,3.0,19.0,55,0.00,,,0.00,Wunderground v.1.15,2013-04-02 02:05:00,
2013-04-01 22:10:00,39.7,25.3,29.93,NNW,330,3.0,3.0,56,0.00,,,0.00,Wunderground v.1.15,2013-04-02 02:10:00,
2013-04-01 22:15:00,39.4,25.0,29.93,NW,325,3.0,19.0,56,0.00,,,0.00,Wunderground v.1.15,2013-04-02 02:15:00,
2013-04-01 22:20:00,39.0,25.0,29.93,NW,305,3.0,3.0,57,0.00,,,0.00,Wunderground v.1.15,2013-04-02 02:20:00,
2013-04-01 22:25:00,38.7,24.8,29.93,NW,322,3.0,19.0,57,0.00,,,0.00,Wunderground v.1.15,2013-04-02 02:25:00,
2013-04-01 22:31:00,38.7,24.8,29.93,WNW,301,3.0,4.0,57,0.00,,,0.00,Wunderground v.1.15,2013-04-02 02:31:00,
2013-04-01 22:37:00,39.0,24.6,29.94,NW,312,3.0,19.0,56,0.00,,,0.00,Wunderground v.1.15,2013-04-02 02:37:00,
2013-04-01 22:42:00,39.3,24.5,29.94,NW,305,4.0,19.0,55,0.00,,,0.00,Wunderground v.1.15,2013-04-02 02:42:00,
2013-04-01 22:48:00,39.3,24.0,29.94,WNW,300,4.0,19.0,54,0.00,,,0.00,Wunderground v.1.15,2013-04-02 02:48:00,
2013-04-01 22:53:00,39.3,24.0,29.94,WNW,289,4.0,19.0,54,0.00,,,0.00,Wunderground v.1.15,2013-04-02 02:53:00,
2013-04-01 22:58:00,39.2,24.4,29.94,NNW,328,5.0,19.0,55,0.00,,,0.00,Wunderground v.1.15,2013-04-02 02:58:00,
2013-04-01 23:03:00,39.1,23.8,29.94,NNW,339,5.0,19.0,54,0.00,,,0.00,Wunderground v.1.15,2013-04-02 03:03:00,
2013-04-01 23:09:00,39.3,23.6,29.94,NW,316,5.0,19.0,53,0.00,,,0.00,Wunderground v.1.15,2013-04-02 03:09:00,
2013-04-01 23:15:00,39.4,22.8,29.94,WNW,282,6.0,19.0,51,0.00,,,0.00,Wunderground v.1.15,2013-04-02 03:15:00,
2013-04-01 23:21:00,39.5,22.4,29.94,NW,317,6.0,19.0,50,0.00,,,0.00,Wunderground v.1.15,2013-04-02 03:21:00,
2013-04-01 23:26:00,39.4,22.3,29.94,NNW,335,5.0,19.0,50,0.00,,,0.00,Wunderground v.1.15,2013-04-02 03:26:00,
2013-04-01 23:32:00,39.4,21.8,29.95,NNW,327,6.0,19.0,49,0.00,,,0.00,Wunderground v.1.15,2013-04-02 03:32:00,
2013-04-01 23:37:00,39.3,21.7,29.95,WNW,295,6.0,19.0,49,0.00,,,0.00,Wunderground v.1.15,2013-04-02 03:37:00,
2013-04-01 23:42:00,39.1,21.5,29.95,NW,308,5.0,19.0,49,0.00,,,0.00,Wunderground v.1.15,2013-04-02 03:42:00,
2013-04-01 23:48:00,38.9,21.3,29.95,WNW,293,5.0,19.0,49,0.00,,,0.00,Wunderground v.1.15,2013-04-02 03:48:00,
2013-04-01 23:54:00,38.8,21.3,29.95,WNW,301,5.0,19.0,49,0.00,,,0.00,Wunderground v.1.15,2013-04-02 03:54:00,